Tracking 29033 objects as of 22-Jun-2024
HD Live streaming from Space Station
objects crossing your sky now

STARLINK-3970

Track STARLINK-3970 now!
10-day predictions
STARLINK-3970 is classified as:


NORAD ID: 52706
Int'l Code: 2022-053BC
Perigee: 545.9 km
Apogee: 547.9 km
Inclination: 53.2 °
Period: 95.4 minutes
Semi major axis: 6917 km
RCS: Unknown
Launch date: May 18, 2022
Source: United States (US)
Launch site: AIR FORCE EASTERN TEST RANGE (AFETR)
Your satellite tracking list
Your tracking list is empty




NASA's NSSDC Master Catalog

Two Line Element Set (TLE):
1 52706U 22053BC  24173.91206978  .00001018  00000-0  82060-4 0  9991
2 52706  53.2172  63.3476 0001441  99.3315 260.7840 15.08842732116848
Source of the keplerian elements: AFSPC